GW5846 Weather Reports


Display with metric or nautical units.
time (UTC)temp
F
wind
direction
speed
MPH
gust
MPH
rain 1hr
in
rain 24hr
in
rain mn
in
humidity
%
barometer
mb
20260507231315 59 246 1.0 2.0 0.00 0.01 0.01 76 1007.4
20260507230812 60 302 1.0 2.0 0.00 0.01 0.01 76 1007.3
20260507230309 61 288 1.0 2.0 0.00 0.01 0.01 75 1007.4
20260507225809 61 189 1.0 3.0 0.00 0.01 0.01 73 1007.2
20260507225306 60 270 1.0 3.0 0.00 0.01 0.01 74 1007.2
20260507224802 60 286 2.0 3.0 0.00 0.01 0.01 74 1007.1
20260507224259 62 233 1.0 2.0 0.00 0.01 0.01 71 1007.1
20260507223755 62 174 1.0 2.0 0.00 0.01 0.01 70 1006.8
20260507223251 62 195 2.0 7.0 0.00 0.01 0.01 71 1006.8
20260507222748 63 196 3.0 4.0 0.00 0.01 0.01 69 1006.8
20260507222244 64 240 1.0 3.0 0.00 0.01 0.01 68 1006.9
20260507221742 62 234 2.0 4.0 0.00 0.01 0.01 69 1006.8
20260507221238 63 218 1.0 3.0 0.00 0.01 0.01 67 1006.6
20260507220734 63 147 1.0 3.0 0.00 0.01 0.01 67 1006.7
20260507220233 63 290 2.0 4.0 0.00 0.01 0.01 67 1006.7
20260507215728 64 218 2.0 3.0 0.00 0.01 0.01 65 1006.4
20260507215226 64 239 3.0 8.0 0.00 0.01 0.01 65 1006.5
20260507214723 63 222 3.0 6.0 0.00 0.01 0.01 65 1006.5
20260507214220 64 207 4.0 6.0 0.00 0.01 0.01 65 1006.6
20260507213715 64 277 0.0 2.0 0.00 0.01 0.01 65 1006.7
20260507213213 63 282 2.0 3.0 0.00 0.01 0.01 65 1006.7
20260507212709 61 168 2.0 3.0 0.00 0.01 0.01 68 1006.6
20260507212206 61 199 4.0 6.0 0.00 0.01 0.01 68 1006.4
20260507211703 62 266 2.0 4.0 0.00 0.01 0.01 66 1006.6
20260507211158 62 227 1.0 2.0 0.00 0.01 0.01 70 1006.6
20260507210656 63 216 3.0 8.0 0.00 0.01 0.01 66 1006.6
20260507210152 62 247 3.0 4.0 0.00 0.01 0.01 67 1006.3
20260507205649 63 159 5.0 7.0 0.00 0.01 0.01 67 1006.5
20260507205146 63 217 4.0 7.0 0.00 0.01 0.01 67 1006.5
20260507204642 62 278 1.0 7.0 0.00 0.01 0.01 69 1006.5
20260507204140 62 184 1.0 6.0 0.00 0.01 0.01 68 1006.6
20260507203637 63 224 2.0 7.0 0.00 0.01 0.01 68 1006.7
20260507203135 64 244 4.0 4.0 0.00 0.01 0.01 65 1006.5
20260507202630 62 149 3.0 6.0 0.00 0.01 0.01 67 1006.6
20260507202127 62 165 4.0 6.0 0.00 0.01 0.01 65 1006.8
20260507201622 63 211 5.0 7.0 0.00 0.01 0.01 64 1006.7
20260507201119 63 245 2.0 7.0 0.00 0.01 0.01 66 1006.6
20260507200615 63 208 3.0 7.0 0.00 0.01 0.01 64 1006.7
20260507200111 63 273 3.0 6.0 0.00 0.01 0.01 66 1006.7
20260507195608 62 234 2.0 9.0 0.00 0.01 0.01 69 1007.0
20260507195106 63 167 3.0 8.0 0.00 0.01 0.01 68 1006.9
20260507194602 62 176 2.0 4.0 0.00 0.01 0.01 68 1006.8
20260507194057 61 178 2.0 7.0 0.00 0.01 0.01 68 1006.8
20260507193555 62 174 4.0 4.0 0.00 0.01 0.01 68 1007.0
20260507193051 64 226 5.0 9.0 0.00 0.01 0.01 65 1007.1
20260507192548 63 220 3.0 7.0 0.00 0.01 0.01 64 1007.4
20260507192045 63 276 0.0 2.0 0.00 0.01 0.01 66 1007.5
20260507191540 64 101 1.0 3.0 0.00 0.01 0.01 64 1007.4
20260507191037 62 104 0.0 3.0 0.00 0.01 0.01 67 1007.2
20260507190534 63 294 3.0 3.0 0.00 0.01 0.01 65 1007.4
20260507190033 62 213 5.0 6.0 0.00 0.01 0.01 64 1007.6
20260507185531 63 170 1.0 4.0 0.00 0.01 0.01 63 1007.6
20260507185027 63 326 2.0 6.0 0.00 0.01 0.01 64 1007.5
20260507184526 61 173 4.0 6.0 0.00 0.01 0.01 64 1007.5
20260507184024 62 237 1.0 4.0 0.00 0.01 0.01 68 1007.6
20260507183519 61 162 4.0 6.0 0.00 0.01 0.01 67 1007.6
20260507183017 61 358 0.0 1.0 0.00 0.01 0.01 64 1007.6
20260507182513 59 196 2.0 4.0 0.00 0.01 0.01 70 1007.7
20260507182009 60 200 4.0 4.0 0.00 0.01 0.01 70 1007.7
20260507181506 59 186 3.0 4.0 0.00 0.01 0.01 71 1008.0
20260507181002 59 199 2.0 7.0 0.00 0.01 0.01 74 1007.9
20260507180458 59 173 4.0 6.0 0.00 0.01 0.01 69 1008.1
20260507175954 59 100 2.0 7.0 0.00 0.01 0.01 73 1008.2
20260507175451 58 218 4.0 7.0 0.00 0.01 0.01 74 1008.3
20260507174949 58 211 5.0 7.0 0.00 0.01 0.01 73 1008.3
20260507174446 58 168 3.0 6.0 0.00 0.01 0.01 72 1008.3
20260507173943 56 180 2.0 6.0 0.00 0.01 0.01 77 1008.4
20260507173440 56 161 2.0 6.0 0.00 0.01 0.01 75 1008.6
20260507172937 56 248 3.0 6.0 0.00 0.01 0.01 75 1008.6
20260507172434 56 123 2.0 7.0 0.00 0.01 0.01 76 1008.8
20260507171930 57 155 2.0 4.0 0.00 0.01 0.01 76 1008.6
20260507171426 57 211 2.0 6.0 0.00 0.01 0.01 76 1008.7
20260507170924 57 146 3.0 4.0 0.00 0.01 0.01 75 1009.0
20260507170420 56 301 1.0 4.0 0.00 0.01 0.01 78 1009.1
20260507165916 56 190 2.0 4.0 0.00 0.01 0.01 78 1009.2
20260507165412 55 227 2.0 3.0 0.00 0.01 0.01 79 1009.1
20260507164908 55 176 2.0 6.0 0.00 0.01 0.01 77 1009.0
20260507164406 56 233 2.0 6.0 0.00 0.01 0.01 77 1009.3
20260507163903 56 203 2.0 6.0 0.00 0.01 0.01 76 1009.3
20260507163400 57 192 6.0 7.0 0.00 0.01 0.01 75 1009.2
20260507162856 58 163 5.0 7.0 0.00 0.01 0.01 74 1009.4
20260507162352 56 134 2.0 7.0 0.00 0.01 0.01 75 1009.4
20260507161849 56 215 4.0 6.0 0.00 0.01 0.01 76 1009.4
20260507161345 56 202 4.0 4.0 0.00 0.01 0.01 76 1009.7
20260507160842 57 149 3.0 4.0 0.00 0.01 0.01 75 1009.7
20260507160338 56 67 1.0 2.0 0.00 0.01 0.01 73 1009.7
20260507155835 55 43 3.0 6.0 0.00 0.01 0.01 73 1009.7
20260507155330 55 32 1.0 3.0 0.00 0.01 0.01 74 1010.0
20260507154827 55 101 1.0 4.0 0.00 0.01 0.01 73 1010.0
20260507154325 54 189 1.0 3.0 0.00 0.01 0.01 75 1010.0
20260507153821 54 132 3.0 4.0 0.00 0.01 0.01 76 1010.0
20260507153318 53 76 2.0 7.0 0.00 0.01 0.01 77 1010.1
20260507152815 53 13 1.0 7.0 0.00 0.01 0.01 77 1010.1
20260507152311 53 134 3.0 7.0 0.00 0.01 0.01 78 1010.2
20260507151806 53 47 2.0 4.0 0.00 0.01 0.01 79 1010.0
20260507151303 53 50 5.0 7.0 0.00 0.01 0.01 79 1010.0
20260507150800 53 248 4.0 6.0 0.00 0.01 0.01 79 1010.1
20260507150257 53 13 4.0 9.0 0.00 0.01 0.01 79 1010.0
20260507145753 53 61 2.0 7.0 0.00 0.01 0.01 80 1010.2
20260507145249 52 67 6.0 8.0 0.00 0.01 0.01 79 1010.2
20260507144747 52 92 2.0 4.0 0.00 0.01 0.01 81 1010.6
20260507144244 52 10 2.0 8.0 0.00 0.01 0.01 81 1010.3
20260507143740 53 89 2.0 3.0 0.00 0.01 0.01 82 1010.2
20260507143238 52 113 2.0 3.0 0.00 0.01 0.01 82 1010.3
20260507142734 52 113 4.0 6.0 0.00 0.01 0.01 82 1010.6
20260507142230 52 63 4.0 7.0 0.00 0.01 0.01 82 1010.5
20260507141727 52 58 4.0 6.0 0.00 0.01 0.01 82 1010.6
20260507141224 52 69 2.0 4.0 0.00 0.01 0.01 81 1010.7
20260507140720 53 99 3.0 4.0 0.00 0.01 0.01 81 1010.6
20260507140218 52 15 1.0 2.0 0.00 0.01 0.01 82 1010.6
20260507135714 52 351 2.0 3.0 0.00 0.01 0.01 81 1010.8
20260507135212 52 19 3.0 7.0 0.00 0.01 0.01 81 1010.7
20260507134708 52 64 2.0 4.0 0.00 0.01 0.01 81 1010.6
20260507134204 52 33 1.0 7.0 0.00 0.01 0.01 81 1011.0
20260507133700 52 39 6.0 8.0 0.00 0.01 0.01 81 1010.8
20260507133158 52 44 4.0 6.0 0.00 0.01 0.01 81 1011.1
20260507132655 52 15 2.0 6.0 0.00 0.01 0.01 82 1010.7
20260507132151 52 49 1.0 3.0 0.00 0.01 0.01 82 1010.8
20260507131648 52 52 1.0 3.0 0.00 0.01 0.01 82 1010.7
20260507131145 52 13 3.0 4.0 0.00 0.01 0.01 81 1010.8
20260507130642 52 29 2.0 3.0 0.00 0.01 0.01 82 1010.6
20260507130140 52 190 1.0 9.0 0.00 0.01 0.01 82 1010.8
20260507125638 52 41 4.0 8.0 0.00 0.01 0.01 81 1010.8
20260507125136 52 287 1.0 3.0 0.00 0.01 0.01 81 1011.0
20260507124632 52 45 3.0 6.0 0.00 0.01 0.01 81 1011.0
20260507124130 52 43 2.0 6.0 0.00 0.01 0.01 81 1010.8
20260507123628 52 83 2.0 3.0 0.00 0.01 0.01 81 1010.7
20260507123125 52 63 3.0 3.0 0.00 0.01 0.01 80 1010.8
20260507122620 52 88 0.0 2.0 0.00 0.01 0.01 81 1010.8
20260507122116 52 96 2.0 3.0 0.00 0.01 0.01 81 1010.9
20260507121612 52 325 1.0 2.0 0.00 0.01 0.01 81 1010.4
20260507121108 52 54 2.0 4.0 0.00 0.01 0.01 81 1010.5
20260507120604 52 17 1.0 2.0 0.00 0.01 0.01 81 1010.7
20260507120101 52 20 0.0 1.0 0.00 0.01 0.01 82 1010.4
20260507115557 52 25 2.0 3.0 0.00 0.01 0.01 82 1010.5
20260507115053 52 98 2.0 3.0 0.00 0.01 0.01 82 1010.5
20260507114549 52 31 1.0 4.0 0.00 0.01 0.01 82 1010.4
20260507114046 52 30 2.0 3.0 0.00 0.01 0.01 82 1010.1
20260507113543 52 345 2.0 3.0 0.00 0.01 0.01 82 1010.4
20260507113041 52 350 1.0 3.0 0.00 0.01 0.01 82 1010.2
20260507112538 52 57 1.0 1.0 0.00 0.01 0.01 81 1010.2
20260507112035 52 50 3.0 6.0 0.00 0.01 0.01 80 1010.3
20260507111532 52 32 2.0 2.0 0.00 0.01 0.01 81 1010.3
20260507111029 52 24 0.0 0.0 0.00 0.01 0.01 81 1010.4
20260507110525 52 56 1.0 3.0 0.00 0.01 0.01 81 1010.1
20260507110021 52 21 0.0 2.0 0.00 0.01 0.01 81 1010.2
20260507105519 52 94 2.0 3.0 0.00 0.01 0.01 81 1010.1
20260507105014 52 10 2.0 3.0 0.00 0.01 0.01 81 1009.8
20260507104512 52 30 3.0 6.0 0.00 0.01 0.01 81 1009.8
20260507104008 52 350 3.0 6.0 0.00 0.01 0.01 81 1009.7
20260507103505 52 351 3.0 4.0 0.00 0.01 0.01 81 1009.8
20260507103001 52 28 3.0 8.0 0.00 0.01 0.01 80 1009.8
20260507102458 52 9 1.0 4.0 0.00 0.01 0.01 82 1009.7
20260507101954 52 22 1.0 4.0 0.00 0.01 0.01 83 1010.0
20260507101449 52 113 1.0 3.0 0.00 0.01 0.01 82 1009.8
20260507100946 52 45 0.0 3.0 0.00 0.01 0.01 82 1009.9
20260507100443 52 34 0.0 4.0 0.00 0.01 0.01 83 1010.2
20260507095942 52 14 1.0 3.0 0.00 0.01 0.01 83 1009.9
20260507095439 52 100 2.0 4.0 0.00 0.01 0.01 83 1009.8
20260507094936 52 55 3.0 4.0 0.00 0.01 0.01 85 1009.8
20260507094432 52 2 1.0 3.0 0.00 0.01 0.01 86 1009.8
20260507093929 52 92 1.0 2.0 0.00 0.01 0.01 86 1009.8
20260507093427 52 76 1.0 2.0 0.00 0.01 0.01 86 1009.7
20260507092925 52 38 2.0 4.0 0.00 0.01 0.01 87 1009.5
20260507092421 52 202 1.0 4.0 0.00 0.01 0.01 88 1009.7
20260507091918 52 66 2.0 6.0 0.00 0.01 0.01 89 1009.6
20260507091414 52 102 3.0 4.0 0.00 0.01 0.01 89 1009.8
20260507090910 52 87 2.0 3.0 0.00 0.01 0.01 89 1009.7
20260507090406 52 49 3.0 8.0 0.00 0.01 0.01 88 1009.6
20260507085903 52 18 3.0 8.0 0.00 0.01 0.01 89 1009.6
20260507085400 52 357 2.0 4.0 0.00 0.01 0.01 89 1009.6
20260507084857 52 335 3.0 4.0 0.00 0.01 0.01 90 1009.2
20260507084354 52 58 2.0 4.0 0.00 0.01 0.01 90 1009.5
20260507083851 52 12 4.0 8.0 0.00 0.01 0.01 90 1009.6
20260507083347 52 21 5.0 7.0 0.00 0.01 0.01 91 1009.2
20260507082844 52 35 7.0 10.0 0.00 0.01 0.01 90 1009.2
20260507082339 53 88 4.0 10.0 0.00 0.01 0.01 90 1009.1
20260507081837 53 145 2.0 8.0 0.00 0.01 0.01 89 1009.4
20260507081332 53 44 4.0 7.0 0.00 0.01 0.01 88 1009.4
20260507080830 53 89 1.0 3.0 0.00 0.01 0.01 88 1009.5
20260507080326 53 70 2.0 6.0 0.00 0.01 0.01 88 1009.7
20260507075821 53 25 3.0 4.0 0.00 0.01 0.01 88 1009.5
20260507075318 53 84 2.0 9.0 0.00 0.01 0.01 87 1009.6
20260507074814 54 84 3.0 6.0 0.00 0.01 0.01 88 1009.5
20260507074312 54 2 3.0 9.0 0.00 0.01 0.01 88 1009.7
20260507073809 54 27 4.0 7.0 0.00 0.01 0.01 89 1009.6
20260507073305 54 50 4.0 10.0 0.00 0.01 0.01 88 1009.5
20260507072803 54 45 0.0 6.0 0.00 0.01 0.01 89 1009.4
20260507072300 54 79 4.0 9.0 0.00 0.01 0.01 89 1009.2
20260507071757 54 24 5.0 11.0 0.00 0.01 0.01 91 1009.2
20260507071254 55 59 4.0 8.0 0.00 0.01 0.01 91 1008.7
20260507070751 55 334 7.0 8.0 0.00 0.01 0.01 91 1008.6
20260507070248 55 73 6.0 10.0 0.00 0.01 0.01 91 1008.8
20260507065744 55 21 3.0 7.0 0.00 0.01 0.01 91 1009.0
20260507065241 55 27 2.0 8.0 0.00 0.01 0.01 92 1008.7
20260507064738 55 35 4.0 6.0 0.00 0.01 0.01 92 1008.6
20260507064237 55 25 4.0 8.0 0.00 0.01 0.01 91 1008.7
20260507063734 55 64 4.0 9.0 0.00 0.01 0.01 91 1008.7
20260507063231 56 341 2.0 6.0 0.00 0.01 0.01 92 1008.8
20260507062728 56 9 4.0 10.0 0.00 0.01 0.01 92 1009.0
20260507062225 56 209 2.0 6.0 0.00 0.01 0.01 92 1009.0
20260507061723 56 73 8.0 10.0 0.00 0.01 0.01 92 1009.0
20260507061221 56 76 6.0 9.0 0.00 0.01 0.01 92 1008.7
20260507060719 56 42 5.0 7.0 0.00 0.01 0.01 92 1008.7
20260507060215 56 348 3.0 9.0 0.00 0.01 0.01 92 1008.8
20260507055711 56 37 3.0 7.0 0.00 0.01 0.01 92 1009.1
20260507055207 57 32 4.0 9.0 0.00 0.01 0.01 92 1009.2
20260507054703 57 314 6.0 10.0 0.00 0.01 0.01 92 1009.0
20260507054200 57 57 12.0 16.0 0.00 0.01 0.01 92 1009.2
20260507053658 57 35 4.0 10.0 0.00 0.01 0.01 94 1009.3
20260507053156 57 62 8.0 10.0 0.00 0.01 0.01 95 1009.3
20260507052654 58 56 3.0 8.0 0.00 0.01 0.01 95 1009.3
20260507052150 58 55 4.0 9.0 0.00 0.01 0.01 95 1008.7
20260507051648 58 45 4.0 10.0 0.00 0.01 0.01 97 1008.5
20260507051144 58 87 4.0 10.0 0.00 0.01 0.01 98 1008.8
20260507050641 59 352 2.0 6.0 0.05 0.01 0.01 99 1008.7
20260507050138 59 318 3.0 8.0 0.05 0.01 0.01 99 1008.6
20260507045635 59 12 1.0 3.0 0.00 0.00 0.00 99 1008.5
20260507045131 59 277 2.0 3.0 0.00 0.00 0.00 99 1008.0
20260507044628 59 346 1.0 1.0 0.00 0.00 0.00 99 1008.1
20260507044125 59 93 0.0 2.0 0.00 0.00 0.00 99 1008.0
20260507043621 60 132 1.0 3.0 0.00 0.00 0.00 99 1007.8
20260507043118 60 155 4.0 7.0 0.00 0.00 0.00 99 1007.4
20260507042614 60 169 3.0 7.0 0.00 0.00 0.00 98 1007.6
20260507042110 60 197 2.0 3.0 0.00 0.00 0.00 97 1008.1
20260507041607 60 124 0.0 3.0 0.00 0.00 0.00 97 1008.0
20260507041103 61 32 0.0 2.0 0.00 0.00 0.00 97 1008.2
20260507040600 61 157 0.0 1.0 0.00 0.00 0.00 97 1008.4
20260507040057 61 336 0.0 0.0 0.00 0.13 0.13 96 1009.0
20260507035553 61 339 1.0 1.0 0.26 0.13 0.13 95 1009.0
20260507035049 61 222 0.0 2.0 0.31 0.13 0.13 95 1009.0
20260507034546 62 71 0.0 1.0 0.17 0.09 0.09 93 1009.2
20260507034044 62 133 0.0 1.0 0.12 0.08 0.08 92 1009.3
20260507033541 62 261 0.0 1.0 0.00 0.06 0.06 90 1009.1
20260507033038 63 91 0.0 0.0 0.00 0.06 0.06 85 1008.8
20260507032535 63 72 0.0 1.0 0.00 0.06 0.06 85 1008.7
20260507032032 63 138 1.0 2.0 0.00 0.06 0.06 84 1008.6
20260507031528 63 203 2.0 3.0 0.00 0.06 0.06 83 1008.8
20260507031025 63 86 0.0 2.0 0.00 0.06 0.06 82 1009.0
20260507030522 63 96 2.0 3.0 0.00 0.06 0.06 82 1008.4
20260507030020 64 113 1.0 2.0 0.00 0.06 0.06 81 1008.4
20260507025516 64 36 3.0 4.0 0.00 0.06 0.06 81 1008.3
20260507025014 64 359 1.0 3.0 0.00 0.06 0.06 81 1008.3
20260507024512 64 351 3.0 6.0 0.00 0.06 0.06 81 1008.4
20260507024008 64 5 2.0 2.0 0.00 0.06 0.06 82 1008.3
20260507023504 64 37 0.0 3.0 0.00 0.06 0.06 83 1008.4
20260507023002 64 342 3.0 4.0 0.00 0.06 0.06 82 1008.7
20260507022458 64 17 3.0 3.0 0.00 0.06 0.06 82 1008.4
20260507021954 64 95 0.0 3.0 0.00 0.06 0.06 82 1007.9
20260507021449 65 295 1.0 6.0 0.00 0.06 0.06 81 1008.2
20260507020947 65 71 1.0 4.0 0.00 0.06 0.06 82 1007.9
20260507020444 65 89 2.0 6.0 0.00 0.06 0.06 83 1008.0
20260507015941 65 298 2.0 2.0 0.00 0.06 0.06 85 1008.0
20260507015439 65 299 3.0 3.0 0.00 0.06 0.06 84 1007.9
20260507014936 65 25 1.0 2.0 0.00 0.06 0.06 84 1007.5
20260507014433 65 8 2.0 4.0 0.00 0.06 0.06 84 1007.5
20260507013929 65 60 1.0 3.0 0.00 0.06 0.06 84 1007.6
20260507013426 65 26 1.0 3.0 0.00 0.06 0.06 83 1007.6
20260507012923 65 341 0.0 3.0 0.00 0.06 0.06 83 1007.6
20260507012420 65 66 0.0 4.0 0.00 0.06 0.06 83 1007.3
20260507011917 66 354 3.0 7.0 0.00 0.06 0.06 84 1007.3
20260507011414 66 34 5.0 6.0 0.00 0.06 0.06 83 1007.5
20260507010913 66 32 4.0 9.0 0.00 0.06 0.06 84 1007.6
20260507010409 66 100 3.0 7.0 0.00 0.06 0.06 85 1007.6
20260507005906 66 50 4.0 8.0 0.00 0.06 0.06 85 1007.9
20260507005403 66 75 2.0 2.0 0.00 0.06 0.06 84 1008.0
20260507004900 66 25 2.0 4.0 0.00 0.06 0.06 84 1008.0
20260507004357 67 118 2.0 4.0 0.00 0.06 0.06 83 1008.2
20260507003854 69 7 1.0 6.0 0.00 0.06 0.06 80 1008.0
20260507003349 69 352 0.0 0.0 0.00 0.06 0.06 76 1007.9
20260507002844 69 306 0.0 0.0 0.00 0.06 0.06 76 1007.8
20260507002341 69 306 0.0 0.0 0.00 0.06 0.06 75 1007.8
20260507001838 69 278 0.0 1.0 0.00 0.06 0.06 74 1007.5
20260507001335 69 262 1.0 1.0 0.00 0.06 0.06 74 1007.6
20260507000831 69 243 0.0 2.0 0.00 0.06 0.06 74 1007.6
20260507000328 70 289 1.0 3.0 0.00 0.06 0.06 74 1007.3
20260506235824 70 290 3.0 4.0 0.00 0.06 0.06 73 1007.5
20260506235320 70 63 2.0 6.0 0.00 0.06 0.06 74 1007.2
20260506234816 70 311 2.0 4.0 0.00 0.06 0.06 74 1007.2
20260506234314 70 302 2.0 3.0 0.00 0.06 0.06 73 1007.3
20260506233812 70 295 2.0 7.0 0.00 0.06 0.06 74 1007.1
20260506233307 70 240 3.0 6.0 0.00 0.06 0.06 74 1007.1
20260506232804 70 298 2.0 4.0 0.00 0.06 0.06 75 1007.1
20260506232300 70 168 1.0 3.0 0.00 0.06 0.06 75 1007.2
20260506231757 71 307 2.0 3.0 0.00 0.06 0.06 75 1007.1